Regional Weather Roundup
Issued by NWS

Home | Current Version | Previous Version | Graphics & Text | Print | Product List | Glossary On
Versions: 1 2 3 4 5 6 7 8 9 10 11 12 13 14 15 16 17 18 19 20 21 22 23 24 25 26 27 28 29 30 31 32 33 34 35 36 37 38 39 40 41 42 43 44 45 46 47 48 49 50
000
ASUS43 KMKX 160700
RWRWI

WISCONSIN REGIONAL WEATHER ROUNDUP
NATIONAL WEATHER SERVICE MILWAUKEE/SULLIVAN WI
100 AM CST SAT DEC 16 2017

NOTE: "FAIR" INDICATES FEW OR NO CLOUDS BELOW 12,000 FEET WITH NO
SIGNIFICANT WEATHER AND/OR OBSTRUCTIONS TO VISIBILITY.

WIZ001-002-006>008-014>016-023>028-160800-
NORTHWEST WISCONSIN

CITY           SKY/WX    TMP DP  RH WIND       PRES   REMARKS
SUPERIOR ARPT  LGT SNOW  16  13  88 CALM      29.78S
ASHLAND        CLOUDY    11   6  81 CALM      29.80S
HAYWARD        LGT SNOW  16  11  80 E3        29.73F
SIREN          LGT SNOW  19  16  89 E5        29.72F WCI  12
CUMBERLAND     LGT SNOW  19  16  86 E5        29.70F WCI  13
RICE LAKE      LGT SNOW  19  17  92 CALM      29.73S
CHETEK         CLOUDY    19  17  92 E5        29.72F WCI  12
LADYSMITH      LGT SNOW  17  15  89 E5        29.75F WCI  10
EAU CLAIRE     LGT SNOW  23  21  92 NE7       29.71F FOG     WCI  15
MENOMONIE      LGT SNOW  24  23  95 E7        29.71F WCI  16
NEW RICHMOND   LGT SNOW  24  22  91 E5        29.68S WCI  18
OSCEOLA        LGT SNOW  25  24  96 E8        29.72S WCI  16
$$

WIZ003>005-009-010-017-018-160800-
NORTH CENTRAL WISCONSIN

CITY           SKY/WX    TMP DP  RH WIND       PRES   REMARKS
MANITOWISH WTR CLOUDY     9   7  95 SE5       29.74S WCI   0
ARBOR VITAE    CLOUDY    11   8  85 SE3       29.74S
WOODRUFF       CLOUDY    11   8  85 SE3       29.74S
RHINELANDER    CLOUDY    10   6  84 E5        29.75F WCI   2
EAGLE RIVER    CLOUDY    10   4  78 CALM      29.75S
LAND O LAKES   CLOUDY     8   5  88 CALM      29.77S
PHILLIPS       LGT SNOW  12   9  85 E6        29.73F WCI   3
TOMAHAWK       LGT SNOW  11   8  87 CALM      29.76F
MEDFORD        LGT SNOW  15  12  88 E5        29.72F WCI   8
MERRILL        LGT SNOW  13  11  89 CALM      29.77F
$$

WIZ029-030-035-036-043>047-160800-
CENTRAL WISCONSIN

CITY           SKY/WX    TMP DP  RH WIND       PRES   REMARKS
WAUSAU         LGT SNOW  15  12  88 E6        29.75F FOG     WCI   6
MOSINEE        LGT SNOW  18  16  93 E6        29.77F WCI   9
MARSHFIELD     LGT SNOW  19  16  88 E7        29.72F FOG     WCI  10
STEVENS POINT  LGT SNOW  16  15  96 E6        29.78F WCI   8
WAUPACA        LGT SNOW  20  17  85 NE3       29.81F
WAUTOMA        LGT SNOW  20  18  92 NE7       29.79F FOG     WCI  11
WISC RAPIDS    LGT SNOW  21  17  84 E6        29.77F FOG     WCI  13
CAMP DOUGLAS   NOT AVBL
$$

WIZ011>013-019>022-031-037>040-048>050-160800-
NORTHEAST WISCONSIN

CITY           SKY/WX    TMP DP  RH WIND       PRES   REMARKS
ANTIGO         CLOUDY    11   7  84 E7        29.76F WCI   1
SHAWANO        LGT SNOW  16  12  82 CALM      29.83F
OCONTO         CLOUDY    11   7  84 CALM      29.85F
STURGEON BAY   CLOUDY    18  10  71 N6        29.85S WCI  10
GREEN BAY      LGT SNOW  17  12  80 NE5       29.84F WCI  10
MANITOWOC      FLURRIES  16  13  88 CALM      29.85S
APPLETON       LGT SNOW  18  12  79 E8        29.80F WCI   7
CLINTONVILLE   LGT SNOW  16  12  86 CALM      29.83F
OSHKOSH        LGT SNOW  21  18  88 E7        29.80F VSB 1   WCI  12
$$

WIZ032>034-041-042-053>061-160800-
SOUTHWEST WISCONSIN

CITY           SKY/WX    TMP DP  RH WIND       PRES   REMARKS
LA CROSSE      CLOUDY    31  29  92 SE6       29.71F WCI  25
SPARTA         CLOUDY    28  28  98 CALM      29.74F
VIROQUA        CLOUDY    29  29  99 CALM      29.71F
BOSCOBEL       CLOUDY    30  27  88 CALM      29.75F
PRAIRIE DU CHI PTCLDY    36  22  56 CALM      29.75S
PLATTEVILLE    CLOUDY    34  26  71 S9        29.76F WCI  27
$$

WIZ056-057-062-063-064-067-068-160800-
SOUTH CENTRAL WISCONSIN

CITY           SKY/WX    TMP DP  RH WIND       PRES   REMARKS
REEDSBURG      MOCLDY    29  29 100 CALM      29.74F
BARABOO/DELLS  CLOUDY    29  27  92 E3        29.75F
LONE ROCK      NOT AVBL
MINERAL POINT  CLOUDY    36  28  75 S8        29.75F WCI  29
MADISON        CLOUDY    32  25  75 S5        29.78F WCI  27
MIDDLETON      CLOUDY    35  25  68 SW5       29.76F WCI  31
WATERTOWN      CLOUDY    29  29  98 CALM      29.78F
MONROE         CLOUDY    34  23  64 S10       29.77F WCI  26
JANESVILLE     CLOUDY    36  23  60 SW10      29.79F WCI  28
$$

WIZ051-052-058>065-066-070>072-160800-
SOUTHEAST WISCONSIN

CITY           SKY/WX    TMP DP  RH WIND       PRES   REMARKS
MILWAUKEE      CLOUDY    31  28  89 CALM      29.81F
WAUKESHA       CLOUDY    28  27  93 CALM      29.81F
MILWAUKEE/TIMM CLOUDY    30  27  86 CALM      29.82F
RACINE         CLOUDY    33  25  72 SW7       29.83F WCI  27
BURLINGTON     CLOUDY    33  26  75 SW9       29.81F WCI  26
KENOSHA        CLOUDY    36  23  59 SW12      29.82F WCI  28
FOND DU LAC    LGT SNOW  25  21  85 CALM      29.80F FOG
SHEBOYGAN      LGT SNOW  20  18  92 NE6       29.82F VSB 1   WCI  12
WEST BEND      LGT SNOW  23  23 100 CALM      29.81S
JUNEAU         LGT SNOW  28  27  96 SE5       29.79F WCI  22
$$

LSZ147-162-160800-
LAKE SUPERIOR

STATION/POSITION TIME  TEMP    WIND        PRES    WAVE
                       AIR SEA DIR/SP/G            HT/PER
                 (UTC) (F)     (DEG/KT/KT) (MB)    (FT/S)
DEVILS ISLAND    0600   19     130/  3/  4 1010.4F
SAXON HARBOR     0640   14                 1008.8F
$$

LMZ867-665-643>646-160800-
LAKE MICHIGAN

STATION/POSITION TIME  TEMP    WIND        PRES    WAVE
                       AIR SEA DIR/SP/G            HT/PER
                 (UTC) (F)     (DEG/KT/KT) (MB)    (FT/S)
NORTHPORT PIER   0640   20     310/  4/  7 1010.5F
KEWAUNEE LAKESHO 0630   15     300/  2/  3 1010.1F
SHEBOYGAN LAKESH 0600   23      20/  5/  7 1011.4F
PORT WASHINGTON  0630   26     340/  2/  3 1011.2F
MILWAUKEE LAKESH 0630   32     180/  4/  5   N/A
KENOSHA   LAKESH 0600   36     220/ 11/ 16 1010.5
$$

TC  - TEMPERATURE IN CELSIUS
VSB - VISIBILITY IN STATUTE MILES
WCI - WIND CHILL INDEX
HX  - HEAT INDEX





USA.gov is the U.S. government's official web portal to all federal, state and local government web resources and services.